Regional Weather Roundup
Issued by NWS

Home | Current Version | Previous Version | Graphics & Text | Print | Product List | Glossary On
Versions: 1 2 3 4 5 6 7 8 9 10 11 12 13 14 15 16 17 18 19 20 21 22 23 24 25 26 27 28 29 30 31 32 33 34 35 36 37 38 39 40 41 42 43 44 45 46 47 48 49 50
000
ASUS43 KLSX 221759
RWRMO

WEATHER SUMMARY FOR MISSOURI
NATIONAL WEATHER SERVICE SPRINGFIELD MO
100 PM CDT MON MAY 22 2017

NOTE: "FAIR" INDICATES FEW OR NO CLOUDS BELOW 12,000 FEET WITH NO
       SIGNIFICANT WEATHER AND/OR OBSTRUCTIONS TO VISIBILITY.
       CURRENT SKY AND/OR WEATHER CONDITIONS ARE NOT AVAILABLE FOR
       CHILLICOTHE AND FARMINGTON.

MOZ001>031-035>038-043-044-053-054-221900-
...NORTHERN AND WESTERN MISSOURI...

CITY           SKY/WX    TMP DP  RH WIND       PRES   REMARKS
KANSAS CTY INT CLOUDY    64  58  80 SW9       30.02F
6HR MIN TEMP:  54; 6HR MAX TEMP:  66; 6HR PCP:  0.05;

KANSAS C DTWN  CLOUDY    68  57  68 SW7       30.02F
6HR MIN TEMP:  58; 6HR MAX TEMP:  69; 6HR PCP: TRACE;

LEE`S SUMMIT   CLOUDY    70  58  65 SW10      30.03F
6HR MIN TEMP:  59; 6HR MAX TEMP:  70; 6HR PCP: TRACE;

ST JOSEPH      LGT RAIN  59  59 100 S5        30.01F
6HR MIN TEMP:  54; 6HR MAX TEMP:  63; 6HR PCP:  0.30;

CHILLICOTHE      N/A     61  58  90 VRB5      30.03S
6HR MIN TEMP:  52; 6HR MAX TEMP:  69; 6HR PCP:  0.07;

KIRKSVILLE     CLOUDY   N/A N/A N/A SW9       30.00F
6HR MIN TEMP:  49; 6HR MAX TEMP:  69;


$$
MOZ066>068-077>081-088>096-101>105-221900-
...SOUTHWEST MISSOURI...

CITY           SKY/WX    TMP DP  RH WIND       PRES   REMARKS
SPRINGFIELD    SUNNY     71  50  47 S13       30.08S
6HR MIN TEMP:  52; 6HR MAX TEMP:  72;

JOPLIN         CLOUDY    73  53  49 S9        30.06F
6HR MIN TEMP:  56; 6HR MAX TEMP:  75;

BRANSON        PTSUNNY   72  46  40 SE9       30.10F

$$
MOZ032>034-039>042-045>050-055>058-069>072-221900-
...CENTRAL MISSOURI...

CITY           SKY/WX    TMP DP  RH WIND       PRES   REMARKS
COLUMBIA       MOSUNNY   74  51  44 SW17      30.05F
6HR MIN TEMP:  51; 6HR MAX TEMP:  74;

JEFFERSON CITY SUNNY     75  51  43 SW9       30.04F
6HR MIN TEMP:  52; 6HR MAX TEMP:  75;

ROLLA          SUNNY     72  52  49 S13G21    30.06F
6HR MIN TEMP:  50; 6HR MAX TEMP:  72;

SEDALIA        CLOUDY    68  56  65 SW10      30.07F
6HR MIN TEMP:  55; 6HR MAX TEMP:  71;

WARRENSBURG    CLOUDY    64  54  68 S8        30.05F
OSAGE BEACH    MOSUNNY   74  52  46 S13       30.07F

$$
MOZ051-052-059>065-221900-
...EAST CENTRAL MISSOURI...

CITY           SKY/WX    TMP DP  RH WIND       PRES   REMARKS
ST LOUIS INTL  PTSUNNY   75  42  30 S10       30.07F
6HR MIN TEMP:  57; 6HR MAX TEMP:  75;

SPIRIT OF STL  PTSUNNY   73  46  38 CALM      30.05F
6HR MIN TEMP:  50; 6HR MAX TEMP:  73;

ST CHARLES     SUNNY     73  48  41 S14       30.05F
6HR MIN TEMP:  52; 6HR MAX TEMP:  73;


$$
MOZ072>076-082>087-097>100-106>115-221900-
...SOUTH CENTRAL AND SOUTHEAST MISSOURI...

CITY           SKY/WX    TMP DP  RH WIND       PRES   REMARKS
CAPE GIRARDEAU CLOUDY    71  50  47 S7        30.10F
6HR MIN TEMP:  57; 6HR MAX TEMP:  71;

FARMINGTON     SUNNY     70  50  49 S8        30.10F
6HR MIN TEMP:  49; 6HR MAX TEMP:  70;

POPLAR BLUFF   SUNNY     72  50  45 E3        30.09F
6HR MIN TEMP:  55; 6HR MAX TEMP:  72;

WEST PLAINS    SUNNY     69  48  47 S7        30.11F
6HR MIN TEMP:  50; 6HR MAX TEMP:  69;


$$



USA.gov is the U.S. government's official web portal to all federal, state and local government web resources and services.